Wind_Speed
11 12 12 11 11 11 11 12 11 11 12 14 15 15 15 16 16 16 16 15 16 16 16 17 17 16 16 17 19 19 19 19 19 20 19 18 18 18 19 19 19 19 19 17
11 11 10 10 12 12 11 11 11 11 13 15 16 17 17 17 17 17 16 16 17 17 17 17 16 16 17 17 19 20 19 20 20 20 19 19 18 18 18 18 19 18 18 18
10 9 9 11 11 11 9 11 12 13 14 15 16 17 18 18 18 17 16 16 18 18 18 17 18 18 18 19 20 20 19 19 20 19 19 18 18 18 18 18 18 17 18 17
9 9 9 10 10 10 10 10 13 15 16 17 17 18 17 17 17 17 17 18 19 18 18 18 18 18 20 20 21 21 20 20 20 19 19 18 18 17 17 16 16 16 15 15
8 8 9 10 9 10 10 11 12 14 16 17 18 18 17 16 16 16 17 18 18 18 18 19 19 20 20 21 20 20 20 20 19 18 18 18 17 17 17 16 15 14 14 15
8 8 10 10 9 10 11 12 13 14 15 15 15 16 17 16 16 16 16 17 18 18 19 19 20 20 20 20 19 19 20 19 18 18 17 17 16 16 16 16 14 14 14 14
10 9 10 11 10 11 12 12 13 14 15 15 15 16 15 15 15 16 15 16 18 19 19 18 20 20 19 19 19 19 20 19 17 17 16 16 15 16 16 15 14 14 13 13
9 9 10 11 12 12 13 13 14 15 15 16 17 17 16 15 15 13 13 15 17 18 17 16 18 20 20 19 18 19 19 17 17 16 15 15 15 14 14 14 14 13 13 13
10 10 11 11 11 12 13 14 14 16 16 17 18 17 16 15 15 14 14 15 16 16 15 15 17 18 18 19 19 18 16 15 15 14 13 13 14 13 13 13 13 13 13 13
12 12 12 12 12 12 13 14 15 15 17 18 18 16 15 15 15 14 14 14 16 16 16 16 17 17 18 18 18 17 16 14 13 13 13 13 13 13 13 14 14 14 13 13
12 12 11 12 12 13 13 14 15 16 17 17 18 17 16 16 15 14 15 16 16 16 17 17 16 16 17 17 17 16 14 13 12 12 12 12 13 13 13 13 13 13 13 13
13 13 12 12 12 13 14 14 15 17 17 17 18 18 16 16 16 16 16 16 16 16 16 17 17 17 17 16 16 15 13 12 12 12 12 13 13 14 14 14 13 13 13 13
15 15 14 14 14 14 14 15 16 17 17 17 18 19 17 16 17 16 17 17 16 17 17 18 18 17 17 17 16 15 14 13 13 13 13 13 14 14 15 15 14 14 14 14
15 16 16 16 16 16 16 16 18 18 18 18 18 18 18 17 17 18 18 18 17 18 18 18 17 17 16 16 15 13 14 14 13 13 14 14 15 15 15 15 15 14 14 14
16 16 16 16 18 18 17 16 17 19 19 19 18 19 18 18 18 18 18 18 17 17 17 18 17 17 16 15 14 14 14 14 14 14 14 14 15 15 15 15 15 15 14 14
19 18 18 17 17 18 18 18 19 20 21 21 20 20 19 18 18 18 18 17 18 17 17 18 17 17 16 15 14 14 14 15 15 15 15 15 15 15 15 15 15 15 15 14
20 20 20 19 19 20 20 19 19 21 21 21 21 20 19 19 19 19 19 19 19 17 17 17 17 17 17 16 15 15 15 15 16 16 15 14 14 15 15 15 14 14 14 14
22 22 22 22 22 22 20 19 20 21 21 21 21 20 20 20 19 19 19 20 19 18 17 18 18 18 17 17 17 17 17 17 16 16 15 15 15 14 14 14 14 14 14 14
23 23 24 24 23 22 20 19 20 20 20 21 21 19 19 19 19 18 18 19 19 18 18 19 20 18 18 18 18 17 17 17 17 16 16 16 16 15 15 15 15 14 14 14
25 25 25 25 25 23 20 20 20 19 20 20 20 19 19 19 18 18 19 19 19 19 19 19 19 18 19 18 18 18 18 18 17 17 17 16 16 16 15 15 15 15 15 15
26 26 26 26 26 25 22 21 20 20 19 19 19 19 19 19 19 19 18 19 19 19 19 19 19 19 18 18 19 19 19 18 18 17 17 16 16 16 16 16 16 16 16 16
26 26 27 27 27 26 24 23 22 21 21 19 18 19 21 20 19 19 19 19 19 19 20 21 20 19 19 19 20 20 19 19 18 18 17 17 17 16 16 17 17 17 17 17
27 27 26 27 26 26 24 23 23 22 22 21 21 21 22 21 21 21 22 22 21 21 21 21 20 20 20 20 20 20 19 19 20 19 18 17 17 17 18 18 18 19 19 19
26 27 28 27 27 27 26 25 25 25 24 24 24 23 24 23 22 23 23 23 23 23 22 22 22 21 20 20 21 21 20 20 20 19 18 18 18 18 18 18 19 20 20 19
28 27 28 28 28 29 28 27 26 26 25 24 25 26 25 25 25 25 25 24 24 24 23 23 23 23 22 22 22 21 20 19 19 19 18 19 19 19 18 19 19 20 20 20
28 28 28 28 28 28 28 28 27 27 26 26 26 26 26 26 26 25 25 25 25 24 23 23 23 23 23 23 23 23 21 20 20 19 19 20 20 20 20 20 20 20 20 19
Wind_Direction
214 218 222 227 233 237 241 252 257 263 267 275 282 289 288 294 297 299 304 306 305 310 311 308 303 305 307 308 310 308 303 303 303 304 302 298 295 292 291 289 289 285 282 283
218 220 226 229 233 239 245 250 254 260 270 276 280 283 286 294 299 299 300 303 308 308 307 308 306 309 308 308 309 308 305 303 303 302 301 299 297 294 293 292 291 286 282 281
221 222 225 225 229 234 242 252 259 266 271 274 281 287 287 294 298 299 299 301 305 306 310 311 307 307 308 308 309 310 308 305 302 300 299 298 296 292 292 291 289 285 284 284
219 220 228 231 231 232 241 254 264 269 271 271 281 287 287 291 294 295 298 298 304 308 312 313 308 307 308 308 308 309 309 307 302 296 295 295 296 293 291 289 288 288 286 284
217 224 231 236 233 238 248 259 271 269 266 267 274 280 281 286 291 292 297 301 302 307 308 312 312 310 309 307 309 310 307 305 300 296 294 293 294 292 290 287 286 287 287 286
226 232 235 238 239 244 251 260 270 269 265 265 270 276 282 287 293 296 296 299 300 305 307 309 311 310 309 308 309 309 308 303 298 297 295 292 291 291 290 288 286 287 288 287
229 235 238 240 240 245 252 262 268 268 265 266 272 275 283 290 296 300 297 295 297 301 306 308 310 310 311 308 309 307 307 304 300 298 294 294 293 292 293 290 287 289 291 289
235 240 246 247 247 250 259 267 269 274 274 274 277 280 284 289 297 303 300 300 302 303 305 307 310 311 314 316 315 312 308 304 302 302 297 296 300 299 296 293 291 291 293 291
246 252 252 250 255 258 262 265 270 274 275 279 279 283 284 284 290 296 303 307 307 304 305 311 314 314 315 316 316 315 311 308 304 301 302 303 303 304 302 298 297 293 291 292
251 257 250 249 251 254 261 266 271 276 277 279 280 282 288 290 289 294 301 309 312 313 312 314 317 315 316 318 317 314 314 308 302 303 304 305 304 300 300 302 300 295 294 295
253 258 251 244 246 254 260 264 269 274 278 281 283 287 294 292 290 298 306 311 311 316 317 318 318 317 318 317 317 317 313 307 302 304 306 303 303 303 301 303 300 299 297 295
256 260 256 252 256 261 262 264 266 271 277 281 285 291 295 292 296 302 305 307 313 319 318 318 318 317 316 317 315 315 310 306 304 304 307 305 305 305 301 301 301 300 297 295
253 257 259 256 254 259 263 266 268 269 273 278 283 291 292 296 298 300 303 305 309 312 313 315 317 316 316 316 313 312 311 306 308 306 307 307 306 304 301 299 297 297 297 296
249 252 259 258 255 260 260 262 264 266 272 276 283 290 291 295 296 298 299 302 304 306 309 313 313 314 315 315 313 313 312 311 309 309 308 307 305 302 299 299 298 297 297 295
251 253 259 262 258 260 261 263 262 265 271 275 283 288 292 294 297 298 298 298 302 306 308 309 310 313 313 313 311 312 313 312 311 307 307 306 305 303 301 299 298 296 296 297
258 263 263 259 258 260 263 263 265 267 269 274 279 283 289 293 296 298 299 299 301 304 306 307 309 311 310 310 307 308 309 309 309 309 306 304 303 303 303 298 296 294 293 294
261 265 267 265 263 263 264 267 268 268 269 273 278 282 286 290 292 295 297 298 301 302 305 306 307 308 308 307 305 304 305 305 307 309 307 303 303 302 300 298 298 294 292 292
263 264 265 266 264 261 263 264 267 268 270 273 275 278 282 286 289 292 295 296 298 302 303 304 306 305 303 304 305 304 303 303 304 304 304 304 304 305 302 301 301 296 291 292
260 261 263 263 264 263 263 263 266 270 272 275 277 279 282 285 288 289 292 294 296 297 299 301 304 303 301 303 304 304 303 302 303 302 301 301 301 303 302 302 300 297 293 292
258 261 263 264 266 266 266 266 267 269 272 277 280 280 282 283 284 287 290 293 295 296 296 298 302 302 302 301 302 303 302 301 300 300 301 298 297 300 299 299 299 297 294 294
258 260 263 266 268 268 268 269 269 270 274 276 277 279 278 281 282 285 288 290 294 298 298 297 299 298 297 300 301 301 301 301 299 298 299 296 296 297 298 297 297 295 292 292
255 258 261 265 267 266 268 268 269 272 274 274 274 275 275 279 281 282 286 290 293 296 296 295 295 295 294 297 299 298 298 298 298 295 294 294 296 297 297 296 295 294 292 291
254 256 260 262 265 266 266 268 269 272 274 274 273 273 275 277 279 281 285 287 290 293 294 294 292 294 293 294 296 298 296 295 294 292 291 292 294 296 296 296 295 295 294 293
251 255 257 259 263 265 265 267 269 271 271 272 273 274 276 276 279 281 282 284 288 288 290 291 291 292 291 291 293 295 296 293 291 289 289 291 294 295 295 295 295 295 295 293
254 255 255 257 261 261 262 266 270 271 271 274 273 275 276 277 278 279 280 281 285 286 287 289 289 288 289 289 290 292 293 292 291 289 290 292 293 292 293 294 295 296 295 294
253 255 257 258 260 261 263 265 267 269 270 271 272 275 276 276 276 279 281 281 283 284 285 286 287 285 285 287 288 291 290 288 287 288 290 292 293 291 292 293 295 296 295 295
Height
5852 5853 5854 5855 5856 5857 5858 5858 5858 5859 5859 5859 5858 5859 5859 5858 5857 5857 5855 5854 5852 5850 5849 5847 5845 5842 5842 5840 5838 5835 5833 5830 5828 5826 5824 5822 5819 5817 5816 5813 5812 5810 5808 5806
5849 5850 5852 5852 5853 5855 5855 5855 5855 5856 5856 5856 5855 5855 5854 5854 5853 5853 5852 5850 5848 5846 5845 5844 5841 5839 5838 5836 5833 5830 5828 5825 5823 5821 5819 5817 5815 5813 5811 5808 5807 5805 5803 5802
5847 5850 5849 5850 5851 5852 5852 5852 5853 5853 5853 5853 5852 5852 5851 5850 5849 5848 5847 5846 5845 5843 5841 5839 5837 5835 5833 5830 5828 5825 5823 5820 5818 5816 5814 5812 5810 5808 5806 5804 5802 5801 5799 5797
5845 5847 5847 5848 5849 5850 5850 5851 5851 5850 5850 5850 5850 5848 5848 5847 5846 5845 5843 5842 5841 5839 5836 5834 5832 5829 5828 5826 5823 5820 5818 5815 5812 5810 5809 5807 5805 5803 5801 5799 5798 5796 5794 5793
5844 5845 5845 5846 5847 5848 5848 5848 5848 5847 5847 5846 5846 5844 5844 5843 5842 5841 5839 5838 5836 5834 5833 5830 5827 5825 5823 5821 5818 5815 5812 5810 5808 5806 5804 5802 5800 5798 5796 5795 5794 5792 5791 5789
5841 5842 5843 5844 5844 5845 5845 5845 5845 5844 5844 5843 5843 5841 5840 5839 5838 5837 5835 5834 5832 5830 5828 5826 5823 5820 5818 5815 5813 5810 5807 5804 5803 5801 5799 5797 5795 5794 5792 5790 5789 5788 5787 5785
5838 5839 5840 5840 5841 5842 5842 5843 5842 5841 5840 5840 5839 5838 5838 5835 5834 5832 5831 5829 5828 5826 5824 5822 5819 5816 5813 5811 5808 5806 5803 5800 5798 5796 5794 5793 5791 5789 5788 5786 5785 5784 5783 5782
5835 5836 5837 5837 5838 5838 5839 5839 5839 5838 5837 5836 5835 5834 5834 5832 5830 5829 5827 5826 5824 5822 5820 5818 5815 5812 5809 5807 5804 5801 5798 5796 5794 5792 5790 5789 5788 5786 5784 5783 5781 5780 5779 5778
5832 5833 5834 5834 5834 5835 5835 5835 5835 5834 5833 5832 5830 5830 5829 5828 5827 5826 5824 5822 5820 5818 5816 5814 5811 5808 5806 5804 5801 5798 5795 5793 5791 5789 5787 5786 5784 5783 5781 5779 5778 5777 5775 5774
5829 5830 5831 5831 5831 5832 5832 5832 5831 5830 5829 5827 5826 5826 5826 5824 5823 5822 5820 5818 5817 5815 5812 5810 5807 5804 5802 5800 5797 5794 5792 5789 5787 5786 5784 5783 5781 5779 5777 5776 5774 5773 5772 5770
5826 5827 5828 5828 5828 5828 5829 5828 5827 5826 5825 5824 5822 5824 5822 5820 5819 5818 5816 5815 5813 5811 5809 5807 5804 5801 5799 5796 5793 5791 5789 5787 5785 5783 5781 5779 5778 5776 5774 5772 5770 5769 5768 5766
5822 5823 5824 5825 5825 5825 5825 5824 5823 5823 5821 5820 5818 5821 5817 5816 5815 5813 5812 5811 5810 5808 5806 5804 5801 5798 5796 5793 5790 5788 5786 5784 5782 5780 5778 5776 5774 5772 5770 5769 5767 5765 5764 5762
5819 5820 5820 5821 5823 5822 5821 5820 5819 5818 5817 5816 5815 5816 5813 5812 5811 5809 5808 5807 5806 5805 5803 5800 5798 5795 5792 5789 5786 5784 5782 5780 5778 5776 5775 5773 5771 5769 5767 5765 5763 5761 5760 5758
5815 5815 5816 5817 5816 5816 5816 5815 5814 5813 5812 5811 5811 5810 5809 5808 5807 5805 5804 5803 5802 5800 5799 5796 5794 5791 5789 5785 5783 5781 5779 5777 5775 5773 5771 5770 5767 5765 5763 5761 5759 5757 5756 5754
5810 5810 5811 5812 5811 5811 5811 5811 5810 5809 5808 5807 5807 5805 5805 5804 5802 5802 5800 5799 5798 5796 5794 5792 5789 5787 5785 5782 5779 5777 5775 5773 5771 5770 5768 5766 5764 5761 5759 5757 5755 5753 5752 5750
5804 5805 5806 5807 5806 5806 5806 5806 5805 5805 5803 5802 5802 5801 5801 5799 5798 5797 5796 5795 5793 5791 5790 5788 5785 5783 5781 5778 5776 5774 5772 5770 5768 5766 5764 5761 5759 5757 5755 5753 5751 5749 5748 5746
5798 5799 5800 5801 5801 5801 5801 5801 5800 5799 5798 5798 5797 5797 5796 5795 5794 5792 5791 5790 5788 5786 5784 5783 5781 5778 5776 5774 5772 5770 5768 5766 5764 5761 5759 5757 5755 5753 5751 5749 5746 5744 5743 5742
5793 5794 5794 5794 5795 5795 5798 5795 5794 5793 5793 5792 5792 5792 5791 5790 5789 5788 5786 5785 5783 5781 5779 5778 5776 5774 5772 5770 5768 5766 5764 5762 5760 5757 5755 5753 5751 5749 5747 5745 5743 5741 5740 5739
5787 5787 5787 5787 5787 5788 5790 5789 5788 5787 5787 5787 5787 5786 5785 5785 5784 5782 5781 5780 5778 5777 5775 5773 5771 5769 5767 5765 5763 5761 5759 5757 5755 5753 5751 5749 5747 5746 5743 5741 5740 5738 5736 5735
5780 5780 5781 5780 5780 5781 5784 5784 5783 5783 5781 5781 5781 5780 5780 5779 5779 5778 5776 5775 5774 5772 5770 5769 5767 5765 5763 5761 5759 5757 5755 5753 5751 5749 5747 5745 5743 5742 5740 5738 5736 5734 5733 5731
5772 5772 5773 5773 5773 5774 5776 5776 5777 5777 5777 5776 5775 5775 5775 5774 5774 5773 5771 5770 5768 5767 5765 5763 5762 5760 5758 5756 5754 5752 5750 5748 5746 5744 5742 5740 5739 5737 5736 5734 5732 5730 5728 5727
5764 5765 5766 5766 5767 5769 5769 5769 5770 5770 5770 5770 5770 5769 5769 5768 5768 5767 5766 5765 5763 5761 5760 5758 5756 5754 5752 5751 5749 5746 5744 5742 5740 5739 5737 5735 5734 5732 5731 5729 5728 5726 5724 5722
5757 5758 5759 5760 5762 5762 5762 5762 5762 5763 5764 5764 5763 5763 5763 5762 5762 5761 5760 5759 5757 5756 5754 5752 5750 5749 5747 5745 5743 5741 5739 5737 5735 5733 5732 5730 5729 5727 5726 5724 5723 5721 5719 5717
5749 5750 5751 5752 5752 5753 5754 5754 5755 5756 5757 5757 5757 5756 5756 5755 5755 5754 5754 5752 5750 5748 5747 5745 5744 5742 5741 5739 5737 5735 5733 5731 5729 5727 5726 5725 5724 5722 5720 5719 5717 5716 5714 5712
5741 5742 5743 5745 5745 5745 5746 5747 5748 5748 5749 5749 5749 5748 5748 5748 5747 5747 5746 5745 5743 5741 5740 5738 5737 5735 5734 5732 5731 5729 5727 5726 5724 5722 5721 5720 5718 5716 5715 5714 5712 5710 5708 5706
5732 5734 5735 5736 5737 5738 5739 5739 5740 5741 5741 5741 5740 5740 5740 5739 5739 5738 5737 5736 5735 5734 5733 5731 5729 5728 5727 5725 5724 5722 5721 5719 5718 5717 5716 5714 5712 5711 5709 5708 5706 5704 5702 5700